Location: Iesi
(43.5167°N, 13.2333°E)
Time: 19:20:30
(UTC+00:00)

CARTOSAT-1 - Pass Details

Date: 08 August 2020
Orbit: 616 x 619 km, 97.8° (Epoch: 24 September)

Event Time Altitude Azimuth Distance (km) Brightness Sun altitude
Exits shadow 20:20:00 40° 115° (ESE) 915 3.9 -18.7°
Maximum altitude 20:21:03 50° 72° (ENE) 794 3.9 -18.9°
Drops below altitude 10° 20:25:14 10° 358° (N) 1,996 6.8 -19.4°
Sets 20:27:29 0° 353° (N) 2,906 7.9 -19.7°
